FW2343 Weather Reports


Display with metric or nautical units.
time (UTC)temp
F
wind
direction
speed
MPH
gust
MPH
rain 1hr
in
rain 24hr
in
rain mn
in
humidity
%
barometer
mb
20260906035713 66 0 0.0 0.0 0.00 0.00 0.00 67 1020.2
20260906035206 66 0 0.0 0.0 0.00 0.00 0.00 67 1020.1
20260906034710 66 0 0.0 0.0 0.00 0.00 0.00 67 1020.2
20260906034216 66 0 0.0 0.0 0.00 0.00 0.00 67 1020.2
20260906033209 66 0 0.0 0.0 0.00 0.00 0.00 67 1020.3
20260906032715 66 0 0.0 0.0 0.00 0.00 0.00 67 1020.3
20260906032218 66 0 0.0 0.0 0.00 0.00 0.00 67 1020.2
20260906031716 66 0 0.0 0.0 0.00 0.00 0.00 67 1020.2
20260906031217 66 0 0.0 0.0 0.00 0.00 0.00 67 1020.3
20260906030716 66 0 0.0 0.0 0.00 0.00 0.00 67 1020.2
20260906030206 66 0 0.0 0.0 0.00 0.00 0.00 68 1020.2
20260906025713 66 0 0.0 0.0 0.00 0.00 0.00 68 1020.2
20260906025213 66 0 0.0 0.0 0.00 0.00 0.00 68 1020.3
20260906024718 66 0 0.0 0.0 0.00 0.00 0.00 69 1020.3
20260906024213 66 0 0.0 0.0 0.00 0.00 0.00 69 1020.3
20260906023707 66 0 0.0 0.0 0.00 0.00 0.00 69 1020.3
20260906023213 66 0 0.0 0.0 0.00 0.00 0.00 68 1020.2
20260906022209 66 0 0.0 1.0 0.00 0.00 0.00 68 1020.3
20260906021714 66 0 0.0 1.0 0.00 0.00 0.00 68 1020.2
20260906021210 66 0 0.0 1.0 0.00 0.00 0.00 68 1020.2
20260906020730 67 1 0.0 0.0 0.00 0.00 0.00 67 1020.3
20260906015711 67 0 0.0 0.0 0.00 0.00 0.00 66 1020.2
20260906015207 67 0 0.0 0.0 0.00 0.00 0.00 65 1020.2
20260906014713 67 0 0.0 0.0 0.00 0.00 0.00 65 1020.3
20260906014207 67 0 0.0 0.0 0.00 0.00 0.00 66 1020.3
20260906013706 67 0 0.0 0.0 0.00 0.00 0.00 65 1020.2
20260906013214 67 0 0.0 0.0 0.00 0.00 0.00 65 1020.3
20260906012719 68 0 0.0 0.0 0.00 0.00 0.00 65 1020.3
20260906012210 68 0 0.0 0.0 0.00 0.00 0.00 65 1020.4
20260906011713 68 0 0.0 0.0 0.00 0.00 0.00 65 1020.5
20260906011207 68 0 0.0 0.0 0.00 0.00 0.00 64 1020.5
20260906010719 68 0 0.0 0.0 0.00 0.00 0.00 64 1020.5
20260906010218 68 0 0.0 0.0 0.00 0.00 0.00 64 1020.5
20260906005711 69 0 0.0 0.0 0.00 0.00 0.00 64 1020.6
20260906005219 69 0 0.0 0.0 0.00 0.00 0.00 64 1020.7
20260906004716 69 0 0.0 0.0 0.00 0.00 0.00 63 1020.8
20260906004215 69 0 0.0 3.0 0.00 0.00 0.00 62 1020.7
20260906003707 69 0 0.0 3.0 0.00 0.00 0.00 62 1020.6
20260906002214 69 202 0.0 4.0 0.00 0.00 0.00 62 1020.7
20260906001710 69 0 0.0 5.0 0.00 0.00 0.00 62 1020.7
20260906001213 69 0 0.0 5.0 0.00 0.00 0.00 62 1020.7
20260906000707 69 11 1.0 5.0 0.00 0.00 0.00 61 1020.8
20260906000212 69 18 3.0 3.0 0.00 0.00 0.00 61 1020.8
20260905235710 70 9 0.0 0.0 0.00 0.00 0.00 61 1020.8
20260905235214 71 0 0.0 0.0 0.00 0.00 0.00 60 1020.8
20260905234716 72 0 0.0 0.0 0.00 0.00 0.00 57 1020.8
20260905234205 72 0 0.0 0.0 0.00 0.00 0.00 57 1020.7
20260905233705 72 0 0.0 0.0 0.00 0.00 0.00 57 1020.8
20260905233215 72 0 0.0 0.0 0.00 0.00 0.00 57 1020.8
20260905232733 72 0 0.0 0.0 0.00 0.00 0.00 57 1020.7
20260905232210 72 0 0.0 0.0 0.00 0.00 0.00 57 1020.9
20260905231719 72 0 0.0 0.0 0.00 0.00 0.00 56 1021.0
20260905231209 73 0 0.0 0.0 0.00 0.00 0.00 56 1021.1
20260905230714 73 0 0.0 0.0 0.00 0.00 0.00 55 1021.1
20260905230217 73 0 0.0 0.0 0.00 0.00 0.00 55 1021.1
20260905225707 73 0 0.0 0.0 0.00 0.00 0.00 54 1021.2
20260905225215 74 0 0.0 0.0 0.00 0.00 0.00 54 1021.1
20260905224718 74 0 0.0 0.0 0.00 0.00 0.00 53 1021.1
20260905224213 74 0 0.0 0.0 0.00 0.00 0.00 53 1021.1
20260905223718 74 0 0.0 0.0 0.00 0.00 0.00 52 1021.1
20260905223216 74 0 0.0 0.0 0.00 0.00 0.00 52 1021.2
20260905222714 74 0 0.0 0.0 0.00 0.00 0.00 52 1021.2
20260905222218 75 0 0.0 0.0 0.00 0.00 0.00 52 1021.1
20260905221710 74 0 0.0 0.0 0.00 0.00 0.00 52 1021.1
20260905221211 75 0 0.0 0.0 0.00 0.00 0.00 52 1021.2
20260905220216 75 0 0.0 0.0 0.00 0.00 0.00 52 1021.1
20260905215205 74 0 0.0 0.0 0.00 0.00 0.00 53 1021.1
20260905214719 74 0 0.0 0.0 0.00 0.00 0.00 53 1021.1
20260905214218 75 0 0.0 0.0 0.00 0.00 0.00 52 1021.1
20260905213709 75 0 0.0 0.0 0.00 0.00 0.00 52 1021.1
20260905213215 75 0 0.0 0.0 0.00 0.00 0.00 52 1021.1
20260905212707 75 0 0.0 0.0 0.00 0.00 0.00 52 1021.1
20260905211218 75 0 0.0 0.0 0.00 0.00 0.00 52 1021.2
20260905210705 75 0 0.0 0.0 0.00 0.00 0.00 52 1021.1
20260905210211 76 0 0.0 0.0 0.00 0.00 0.00 51 1021.2
20260905205709 76 0 0.0 0.0 0.00 0.00 0.00 51 1021.2
20260905205211 76 0 0.0 0.0 0.00 0.00 0.00 51 1021.2
20260905204709 76 0 0.0 0.0 0.00 0.00 0.00 51 1021.2
20260905203706 76 0 0.0 0.0 0.00 0.00 0.00 50 1021.3
20260905203212 76 0 0.0 0.0 0.00 0.00 0.00 50 1021.4
20260905202719 77 0 0.0 0.0 0.00 0.00 0.00 50 1021.5
20260905202214 77 0 0.0 0.0 0.00 0.00 0.00 49 1021.6
20260905201706 77 0 0.0 0.0 0.00 0.00 0.00 49 1021.5
20260905201210 77 0 0.0 0.0 0.00 0.00 0.00 48 1021.5
20260905200709 77 0 0.0 0.0 0.00 0.00 0.00 48 1021.4
20260905195708 78 0 0.0 0.0 0.00 0.00 0.00 48 1021.2
20260905195215 78 0 0.0 0.0 0.00 0.00 0.00 47 1021.2
20260905194718 78 0 0.0 0.0 0.00 0.00 0.00 47 1021.2
20260905194218 79 0 0.0 0.0 0.00 0.00 0.00 45 1021.2
20260905193714 79 0 0.0 0.0 0.00 0.00 0.00 45 1021.3
20260905193213 80 0 0.0 0.0 0.00 0.00 0.00 44 1021.4
20260905192713 80 0 0.0 0.0 0.00 0.00 0.00 44 1021.3
20260905192213 80 0 0.0 0.0 0.00 0.00 0.00 43 1021.3
20260905191712 81 0 0.0 0.0 0.00 0.00 0.00 42 1021.3
20260905191219 81 0 0.0 0.0 0.00 0.00 0.00 42 1021.2
20260905190213 82 0 0.0 0.0 0.00 0.00 0.00 41 1021.1
20260905185707 83 0 0.0 0.0 0.00 0.00 0.00 39 1021.0
20260905185215 83 0 0.0 0.0 0.00 0.00 0.00 39 1021.1
20260905184713 84 0 0.0 0.0 0.00 0.00 0.00 37 1021.0
20260905184210 84 0 0.0 0.0 0.00 0.00 0.00 36 1020.9
20260905183213 86 0 0.0 0.0 0.00 0.00 0.00 35 1020.8
20260905182719 87 0 0.0 0.0 0.00 0.00 0.00 34 1020.7
20260905182207 87 0 0.0 0.0 0.00 0.00 0.00 33 1020.7
20260905181715 88 0 0.0 0.0 0.00 0.00 0.00 32 1020.7
20260905181215 89 0 0.0 5.0 0.00 0.00 0.00 31 1020.7
20260905180716 89 0 0.0 5.0 0.00 0.00 0.00 30 1020.7
20260905180213 90 0 0.0 5.0 0.00 0.00 0.00 30 1020.8
20260905175717 90 288 1.0 5.0 0.00 0.00 0.00 29 1020.8
20260905174716 91 277 1.0 7.0 0.00 0.00 0.00 29 1020.9
20260905174212 91 310 1.0 7.0 0.00 0.00 0.00 29 1021.0
20260905173206 92 0 0.0 5.0 0.00 0.00 0.00 29 1020.9
20260905172713 92 281 1.0 6.0 0.00 0.00 0.00 30 1020.8
20260905171705 92 298 2.0 9.0 0.00 0.00 0.00 29 1020.7
20260905171207 92 288 2.0 9.0 0.00 0.00 0.00 29 1020.8
20260905170705 92 274 4.0 9.0 0.00 0.00 0.00 30 1020.8
20260905170226 92 284 2.0 9.0 0.00 0.00 0.00 29 1020.7
20260905165715 92 248 2.0 8.0 0.00 0.00 0.00 29 1020.7
20260905165213 92 260 1.0 8.0 0.00 0.00 0.00 30 1020.7
20260905164219 92 357 2.0 9.0 0.00 0.00 0.00 30 1020.7
20260905163706 92 299 2.0 9.0 0.00 0.00 0.00 30 1020.8
20260905163218 92 320 4.0 9.0 0.00 0.00 0.00 30 1020.7
20260905161719 92 288 2.0 13.0 0.00 0.00 0.00 31 1020.9
20260905161212 92 268 5.0 10.0 0.00 0.00 0.00 30 1020.9
20260905160719 92 260 3.0 12.0 0.00 0.00 0.00 30 1020.9
20260905155714 93 9 1.0 13.0 0.00 0.00 0.00 31 1020.9
20260905155212 92 358 6.0 13.0 0.00 0.00 0.00 31 1020.9
20260905154709 92 322 4.0 13.0 0.00 0.00 0.00 31 1021.0
20260905154213 93 250 4.0 12.0 0.00 0.00 0.00 30 1021.0
20260905153215 93 260 4.0 15.0 0.00 0.00 0.00 30 1021.0
20260905152714 92 317 5.0 15.0 0.00 0.00 0.00 30 1021.0
20260905152215 93 272 5.0 12.0 0.00 0.00 0.00 30 1021.0
20260905151705 93 338 4.0 13.0 0.00 0.00 0.00 30 1021.0
20260905150707 92 351 4.0 14.0 0.00 0.00 0.00 31 1021.0
20260905150206 93 331 4.0 14.0 0.00 0.00 0.00 31 1021.1
20260905145717 93 278 6.0 13.0 0.00 0.00 0.00 30 1021.1
20260905145212 94 282 4.0 13.0 0.00 0.00 0.00 30 1021.1
20260905144713 93 253 4.0 13.0 0.00 0.00 0.00 31 1021.1
20260905143211 93 292 4.0 14.0 0.00 0.00 0.00 32 1021.3
20260905142708 93 336 3.0 14.0 0.00 0.00 0.00 31 1021.3
20260905142212 93 277 4.0 14.0 0.00 0.00 0.00 32 1021.3
20260905141717 93 272 6.0 13.0 0.00 0.00 0.00 32 1021.3
20260905141208 93 279 5.0 13.0 0.00 0.00 0.00 32 1021.4
20260905140713 93 285 2.0 13.0 0.00 0.00 0.00 33 1021.4
20260905140207 92 334 4.0 13.0 0.00 0.00 0.00 33 1021.4
20260905135707 92 272 4.0 11.0 0.00 0.00 0.00 33 1021.5
20260905135212 93 268 5.0 11.0 0.00 0.00 0.00 32 1021.6
20260905134710 93 281 2.0 12.0 0.00 0.00 0.00 33 1021.6
20260905134207 92 286 4.0 12.0 0.00 0.00 0.00 32 1021.6
20260905133708 92 278 2.0 12.0 0.00 0.00 0.00 32 1021.7
20260905133218 92 277 4.0 14.0 0.00 0.00 0.00 32 1021.7
20260905132709 92 278 3.0 14.0 0.00 0.00 0.00 32 1021.8
20260905132209 92 270 6.0 14.0 0.00 0.00 0.00 32 1021.8
20260905131710 91 251 5.0 12.0 0.00 0.00 0.00 31 1021.9
20260905131217 91 279 3.0 12.0 0.00 0.00 0.00 32 1021.8
20260905130712 91 322 4.0 13.0 0.00 0.00 0.00 33 1022.2
20260905130213 91 265 4.0 13.0 0.00 0.00 0.00 33 1022.2
20260905125714 91 230 6.0 13.0 0.00 0.00 0.00 34 1022.3
20260905125216 91 250 4.0 12.0 0.00 0.00 0.00 33 1022.3
20260905124715 91 282 3.0 14.0 0.00 0.00 0.00 33 1022.4
20260905124207 91 282 4.0 14.0 0.00 0.00 0.00 32 1022.4
20260905123717 91 268 5.0 14.0 0.00 0.00 0.00 32 1022.4
20260905123215 91 271 6.0 14.0 0.00 0.00 0.00 33 1022.3
20260905122714 90 260 4.0 14.0 0.00 0.00 0.00 33 1022.4
20260905122213 90 331 6.0 13.0 0.00 0.00 0.00 34 1022.5
20260905121711 90 264 4.0 13.0 0.00 0.00 0.00 32 1022.5
20260905121211 90 271 5.0 14.0 0.00 0.00 0.00 32 1022.4
20260905120720 90 288 2.0 15.0 0.00 0.00 0.00 33 1022.5
20260905120210 89 352 2.0 15.0 0.00 0.00 0.00 33 1022.5
20260905115708 89 257 6.0 15.0 0.00 0.00 0.00 35 1022.4
20260905115215 89 267 6.0 14.0 0.00 0.00 0.00 34 1022.5
20260905114711 89 274 4.0 14.0 0.00 0.00 0.00 34 1022.8
20260905114235 89 268 7.0 13.0 0.00 0.00 0.00 37 1022.8
20260905113705 88 247 4.0 14.0 0.00 0.00 0.00 37 1023.0
20260905113213 88 264 6.0 14.0 0.00 0.00 0.00 37 1022.9
20260905112219 87 327 5.0 14.0 0.00 0.00 0.00 37 1023.1
20260905111716 88 267 5.0 13.0 0.00 0.00 0.00 35 1023.0
20260905111219 87 286 5.0 13.0 0.00 0.00 0.00 36 1023.1
20260905110711 87 281 6.0 13.0 0.00 0.00 0.00 35 1023.2
20260905110205 87 329 4.0 13.0 0.00 0.00 0.00 36 1023.2
20260905105708 86 330 5.0 13.0 0.00 0.00 0.00 35 1023.2
20260905105206 87 257 1.0 13.0 0.00 0.00 0.00 35 1023.3
20260905104708 87 254 4.0 10.0 0.00 0.00 0.00 38 1023.3
20260905104219 86 279 2.0 10.0 0.00 0.00 0.00 39 1023.3
20260905103715 86 258 5.0 12.0 0.00 0.00 0.00 40 1023.3
20260905103214 85 284 4.0 12.0 0.00 0.00 0.00 39 1023.4
20260905102711 85 326 4.0 12.0 0.00 0.00 0.00 44 1023.5
20260905102210 85 282 5.0 11.0 0.00 0.00 0.00 43 1023.6
20260905101208 85 275 5.0 11.0 0.00 0.00 0.00 44 1023.7
20260905100711 85 289 3.0 10.0 0.00 0.00 0.00 46 1023.7
20260905100212 84 281 2.0 10.0 0.00 0.00 0.00 46 1023.9
20260905095712 84 277 3.0 10.0 0.00 0.00 0.00 48 1023.9
20260905095219 84 267 3.0 10.0 0.00 0.00 0.00 48 1024.0
20260905094712 83 281 4.0 9.0 0.00 0.00 0.00 49 1024.0
20260905094213 82 288 3.0 10.0 0.00 0.00 0.00 50 1024.1
20260905093716 82 329 3.0 10.0 0.00 0.00 0.00 52 1024.1
20260905092741 82 285 4.0 13.0 0.00 0.00 0.00 53 1024.1
20260905092206 81 282 1.0 13.0 0.00 0.00 0.00 53 1024.2
20260905091718 81 291 3.0 10.0 0.00 0.00 0.00 55 1024.1
20260905091214 80 274 3.0 13.0 0.00 0.00 0.00 55 1024.2
20260905090216 80 305 3.0 13.0 0.00 0.00 0.00 56 1024.0
20260905085217 79 288 5.0 11.0 0.00 0.00 0.00 56 1024.0
20260905084705 79 291 4.0 11.0 0.00 0.00 0.00 56 1024.0
20260905084206 78 268 4.0 10.0 0.00 0.00 0.00 57 1024.0
20260905083711 78 278 2.0 11.0 0.00 0.00 0.00 57 1024.0
20260905083211 78 267 4.0 11.0 0.00 0.00 0.00 57 1024.0
20260905082715 78 288 4.0 11.0 0.00 0.00 0.00 57 1024.0
20260905082212 78 292 4.0 11.0 0.00 0.00 0.00 58 1024.0
20260905081711 77 270 3.0 11.0 0.00 0.00 0.00 59 1023.8
20260905081237 77 289 5.0 11.0 0.00 0.00 0.00 59 1023.8
20260905080718 77 282 4.0 15.0 0.00 0.00 0.00 59 1023.8
20260905075717 77 281 4.0 15.0 0.00 0.00 0.00 59 1023.8
20260905075214 76 286 6.0 11.0 0.00 0.00 0.00 59 1023.7
20260905074714 76 285 3.0 11.0 0.00 0.00 0.00 59 1023.7
20260905073709 76 260 1.0 10.0 0.00 0.00 0.00 60 1023.6
20260905073212 76 244 2.0 10.0 0.00 0.00 0.00 60 1023.6
20260905072715 76 302 3.0 10.0 0.00 0.00 0.00 60 1023.6
20260905072209 76 241 2.0 7.0 0.00 0.00 0.00 60 1023.6
20260905071706 76 243 0.0 10.0 0.00 0.00 0.00 61 1023.6
20260905071213 76 316 1.0 11.0 0.00 0.00 0.00 61 1023.6
20260905070715 75 258 2.0 11.0 0.00 0.00 0.00 62 1023.5
20260905070218 75 215 2.0 11.0 0.00 0.00 0.00 62 1023.7
20260905065718 74 239 4.0 11.0 0.00 0.00 0.00 63 1023.5
20260905065207 74 244 4.0 0.0 0.00 0.00 0.00 64 1023.5
20260905064720 73 0 0.0 0.0 0.00 0.00 0.00 64 1023.4
20260905064212 72 0 0.0 0.0 0.00 0.00 0.00 66 1023.5
20260905063729 71 0 0.0 0.0 0.00 0.00 0.00 66 1023.5
20260905062716 70 0 0.0 0.0 0.00 0.00 0.00 67 1023.4
20260905061735 69 0 0.0 0.0 0.00 0.00 0.00 67 1023.3
20260905061207 69 0 0.0 0.0 0.00 0.00 0.00 67 1023.2
20260905060710 69 0 0.0 0.0 0.00 0.00 0.00 67 1023.1
20260905060214 69 0 0.0 0.0 0.00 0.00 0.00 67 1023.1
20260905055706 69 0 0.0 0.0 0.00 0.00 0.00 66 1022.9
20260905055218 69 0 0.0 0.0 0.00 0.00 0.00 66 1022.8
20260905054705 69 0 0.0 0.0 0.00 0.00 0.00 67 1022.7
20260905054207 69 0 0.0 0.0 0.00 0.00 0.00 70 1022.6
20260905053219 67 0 0.0 0.0 0.00 0.00 0.00 70 1022.7
20260905052712 67 0 0.0 0.0 0.00 0.00 0.00 69 1022.6
20260905052210 67 0 0.0 0.0 0.00 0.00 0.00 68 1022.6
20260905051718 67 0 0.0 0.0 0.00 0.00 0.00 68 1022.5
20260905051207 67 0 0.0 0.0 0.00 0.00 0.00 68 1022.5
20260905050706 67 0 0.0 0.0 0.00 0.00 0.00 67 1022.5
20260905050209 67 0 0.0 0.0 0.00 0.00 0.00 67 1022.4
20260905045214 67 0 0.0 0.0 0.00 0.00 0.00 67 1022.5
20260905044718 67 0 0.0 0.0 0.00 0.00 0.00 66 1022.5
20260905044219 67 0 0.0 0.0 0.00 0.00 0.00 66 1022.5
20260905043705 67 0 0.0 0.0 0.00 0.00 0.00 66 1022.4
20260905043218 67 0 0.0 0.0 0.00 0.00 0.00 66 1022.5
20260905042716 68 0 0.0 0.0 0.00 0.00 0.00 66 1022.2
20260905042210 68 0 0.0 0.0 0.00 0.00 0.00 66 1022.2
20260905041714 68 0 0.0 0.0 0.00 0.00 0.00 65 1022.2
20260905041205 68 0 0.0 0.0 0.00 0.00 0.00 65 1022.1
20260905040706 68 0 0.0 0.0 0.00 0.00 0.00 65 1022.2
20260905040218 69 0 0.0 0.0 0.00 0.00 0.00 64 1022.1